This is the latest recevied weather packets stored in our database for station/object E25XKG-15. If no packets are shown the sender has not sent any weather packets the latest 1 day(s).
| Time | Temp. | Humidity | Pressure | Rain* | Wind** | Luminosity | Snow |
|---|---|---|---|---|---|---|---|
| 1778087121 | 32.78° C | 55% | 1002.3 hPa | - | - | - | - |
| 1778086820 | 32.78° C | 55% | 1002.4 hPa | - | - | - | - |
| 1778085616 | 32.78° C | 56% | 1002.4 hPa | - | - | - | - |
| 1778085315 | 32.78° C | 56% | 1002.4 hPa | - | - | - | - |
| 1778084713 | 32.78° C | 58% | 1002.5 hPa | - | - | - | - |
| 1778084412 | 32.78° C | 57% | 1002.6 hPa | - | - | - | - |
| 1778084111 | 32.78° C | 54% | 1002.6 hPa | - | - | - | - |
| 1778083810 | 33.33° C | 53% | 1002.6 hPa | - | - | - | - |
| 1778083208 | 33.33° C | 53% | 1002.6 hPa | - | - | - | - |
| 1778082304 | 32.78° C | 54% | 1002.6 hPa | - | - | - | - |
| 1778081400 | 32.78° C | 54% | 1002.5 hPa | - | - | - | - |
| 1778080495 | 32.78° C | 55% | 1002.3 hPa | - | - | - | - |
| 1778079591 | 32.78° C | 54% | 1002.2 hPa | - | - | - | - |
| 1778079290 | 32.78° C | 54% | 1002 hPa | - | - | - | - |
| 1778076279 | 33.33° C | 52% | 1001.5 hPa | - | - | - | - |
| 1778075978 | 33.33° C | 53% | 1001.5 hPa | - | - | - | - |
| 1778075677 | 33.33° C | 52% | 1001.4 hPa | - | - | - | - |
| 1778075376 | 33.33° C | 52% | 1001.3 hPa | - | - | - | - |
| 1778075075 | 33.33° C | 51% | 1001.2 hPa | - | - | - | - |
| 1778074774 | 33.33° C | 51% | 1001.1 hPa | - | - | - | - |
| 1778074473 | 33.33° C | 51% | 1001.1 hPa | - | - | - | - |
| 1778074172 | 33.33° C | 50% | 1001.1 hPa | - | - | - | - |
| 1778070560 | 33.89° C | 51% | 1000 hPa | - | - | - | - |
| 1778069657 | 33.89° C | 51% | 999.8 hPa | - | - | - | - |
| 1778069356 | 33.89° C | 51% | 999.6 hPa | - | - | - | - |
* Rain since midnight (hover to see other rain measurements)
** Current wind speed in m/s (hover to see current wind gust speed)